User: anonymous
Location: Hartman Creek State Park
(44.3257°N, 89.2134°W)
Time: 05:12:53
(UTC-05:00)
Language:

Terra - Orbit

View from above orbital plane
View from above orbital plane
View from above satellite
View from above satellite

Ground track
Ground track

The orbit data is extracted from the following two-line orbital elements,

1 25994U 99068A   14264.72007595  .00000413  00000-0  10163-3 0  6475
2 25994 098.2036 338.0864 0001650 093.7168 266.4222 14.57128805785125
Epoch (UTC): 21 September 2014 17:16:54
Eccentricity: 0.0001650
inclination: 98.2036°
perigee height: 701 km
apogee height: 703 km
right ascension of ascending node: 338.0864°
argument of perigee: 93.7168°
revolutions per day: 14.57128805
mean anomaly at epoch: 266.4222°
orbit number at epoch: 78512

The dashed part of the orbit path shows where the satellite is in the earth's shadow,  

DLR